Location: Unspecified
(41.5000°N, 0.0000°E)
Time: 22:41:41
(UTC+00:00)

deb Explorer IX - Pass Details

Date: 29 June 2019
Orbit: 539 x 1112 km, 38.8° (Epoch: 19 July)

Event Time Altitude Azimuth Distance (km) Brightness Sun altitude
Rises 16:05:03 0° 279° (W) 3,851 ? 37.0°
Reaches altitude 10° 16:08:00 10° 270° (W) 2,936 ? 36.4°
Maximum altitude 16:14:24 34° 209° (SSW) 1,743 ? 35.2°
Drops below altitude 10° 16:20:47 10° 148° (SSE) 2,927 ? 34.0°
Sets 16:23:44 0° 140° (SE) 3,838 ? 33.5°
